一网星座-0045星 (ONEWEB-0045 )

导读 | 豆包AI

ONEWEB-0045是英国OneWeb(一网公司)低轨卫星互联网星座的成员,于北京时间2020年2月6日发射,是该公司2020年首批组网卫星之一。卫星运行在近地轨道,重约150公斤,目前状态为在轨,轨道周期约110分钟,倾角约87.88度,是OneWeb构建全球高速低延迟卫星互联网覆盖计划的重要组成部分,服务海事、航空等领域。

Basic Information
目录编号:
45151
目录名称:
ONEWEB-0045
国际标识:
2020-008W
轨道中心:
EARTH
卫星名称:
一网星座-0045星
卫星全名:
一网星座-0045星 (ONEWEB-0045 )
卫星状态:
在轨 (已飞行2228 天)
发射日期:
2020-02-06 UTC
国别 :
英国 (GB)
星等 :
--
Orbit Information
数据来源 国际轨道数据 AOE轨道数据
星历时间 2026-03-13T16:02:16+0800
18小时前
查看轨道信息
2026-03-13T15:00:00+0800
19小时前
查看轨道信息
半长轴 7595.815km 7595.782km
偏心率 0.0001739 0.0002764
轨道倾角 87.888° 87.889°
近地点辐角 84.136° 113.573°
升交点赤经 40.108° 40.114°
平近点角 275.997° 42.539°
近地点 1216.357km 1215.545km
远地点 1218.999km 1219.745km
周期 109.805分钟 109.804分钟
每日圈数 13.114182 13.114269
Detailed Information
平衡模式:
三轴稳定
覆盖范围:
全球
运营商:
一网卫星公司
运营商所在国:
英国
制造商(研发单位):
一网卫星公司
制造商所在国:
英国
使用方式:
暂无
Satellite Introduction
OneWeb卫星网络由648颗重约125公斤的微型卫星组成,运行在1200公里的轨道上。 每颗卫星都能够提供至少每秒8千兆位的吞吐量,以使用其高吞吐量的Ku频段有效载荷为家庭和移动平台提供互联网接入。该卫星仍在工作。
2D Orbit Map
3D Orbit Map
Orbit Altitude Analysis Chart
Orbit Inclination Analysis Chart
Orbit Comprehensive Analysis Chart
View Comprehensive Chart